| time (UTC) | temp F | wind direction | speed MPH | gust MPH | rain 1hr in | rain 24hr in | rain mn in | humidity % | barometer mb |
| 20260831063502 | 0 | 0 | 0.0 | 0.0 | 0.00 | 0.00 | 0.00 | 52 | |
| 20260831062939 | 0 | 0 | 0.0 | 0.0 | 0.00 | 0.00 | 0.00 | 52 | |
| 20260831062416 | 0 | 0 | 0.0 | 0.0 | 0.00 | 0.00 | 0.00 | 53 | |
| 20260831061853 | 0 | 0 | 0.0 | 0.0 | 0.00 | 0.00 | 0.00 | 52 | |
| 20260831061331 | 0 | 98 | 0.0 | 0.0 | 0.00 | 0.00 | 0.00 | 52 | |
| 20260831060807 | 0 | 0 | 0.0 | 3.0 | 0.00 | 0.00 | 0.00 | 53 | |
| 20260831060244 | 0 | 105 | 0.0 | 3.0 | 0.00 | 0.00 | 0.00 | 54 | |
| 20260831055721 | 0 | 105 | 0.0 | 3.0 | 0.00 | 0.00 | 0.00 | 55 | |
| 20260831055159 | 0 | 0 | 2.0 | 3.0 | 0.00 | 0.00 | 0.00 | 55 | |
| 20260831054635 | 0 | 77 | 0.0 | 3.0 | 0.00 | 0.00 | 0.00 | 57 | |
| 20260831054112 | 0 | 110 | 0.0 | 3.0 | 0.00 | 0.00 | 0.00 | 57 | |
| 20260831053549 | 0 | 117 | 1.0 | 5.0 | 0.00 | 0.00 | 0.00 | 55 | |
| 20260831053026 | 0 | 112 | 0.0 | 5.0 | 0.00 | 0.00 | 0.00 | 56 | |
| 20260831052503 | 0 | 113 | 0.0 | 5.0 | 0.00 | 0.00 | 0.00 | 57 | |
| 20260831051940 | 0 | 107 | 2.0 | 7.0 | 0.00 | 0.00 | 0.00 | 56 | |
| 20260831051417 | 0 | 92 | 2.0 | 7.0 | 0.00 | 0.00 | 0.00 | 58 | |
| 20260831050854 | 0 | 92 | 5.0 | 6.0 | 0.00 | 0.00 | 0.00 | 57 | |
| 20260831050332 | 0 | 99 | 5.0 | 6.0 | 0.00 | 0.00 | 0.00 | 58 | |
| 20260831045809 | 0 | 112 | 3.0 | 5.0 | 0.00 | 0.00 | 0.00 | 66 | |
| 20260831045245 | 0 | 95 | 1.0 | 11.0 | 0.00 | 0.00 | 0.00 | 65 | |
| 20260831044723 | 0 | 99 | 3.0 | 11.0 | 0.00 | 0.00 | 0.00 | 65 | |
| 20260831044203 | 0 | 84 | 1.0 | 11.0 | 0.00 | 0.00 | 0.00 | 65 | |
| 20260831043636 | 0 | 99 | 3.0 | 17.0 | 0.00 | 0.00 | 0.00 | 65 | |
| 20260831043113 | 0 | 37 | 6.0 | 17.0 | 0.00 | 0.00 | 0.00 | 64 | |
| 20260831042550 | 0 | 99 | 6.0 | 17.0 | 0.00 | 0.00 | 0.00 | 64 | |
| 20260831042027 | 0 | 102 | 7.0 | 16.0 | 0.00 | 0.00 | 0.00 | 63 | |
| 20260831041504 | 0 | 88 | 8.0 | 16.0 | 0.00 | 0.00 | 0.00 | 65 | |
| 20260831040941 | 0 | 109 | 7.0 | 16.0 | 0.00 | 0.00 | 0.00 | 63 | |
| 20260831040418 | 0 | 106 | 7.0 | 11.0 | 0.00 | 0.00 | 0.00 | 64 | |
| 20260831035855 | 0 | 103 | 5.0 | 11.0 | 0.00 | 0.00 | 0.00 | 63 | |
| 20260831035332 | 0 | 119 | 6.0 | 12.0 | 0.00 | 0.00 | 0.00 | 62 | |
| 20260831034809 | 0 | 92 | 3.0 | 12.0 | 0.00 | 0.00 | 0.00 | 61 | |
| 20260831034246 | 0 | 77 | 5.0 | 18.0 | 0.00 | 0.00 | 0.00 | 60 | |
| 20260831033723 | 0 | 107 | 6.0 | 18.0 | 0.00 | 0.00 | 0.00 | 59 | |
| 20260831033200 | 0 | 99 | 5.0 | 18.0 | 0.00 | 0.00 | 0.00 | 60 | |
| 20260831032637 | 0 | 82 | 4.0 | 12.0 | 0.00 | 0.00 | 0.00 | 57 | |
| 20260831032114 | 0 | 92 | 4.0 | 12.0 | 0.00 | 0.00 | 0.00 | 57 | |
| 20260831031551 | 0 | 107 | 5.0 | 12.0 | 0.00 | 0.00 | 0.00 | 59 | |
| 20260831031028 | 0 | 100 | 4.0 | 11.0 | 0.00 | 0.00 | 0.00 | 55 | |
| 20260831030505 | 0 | 75 | 5.0 | 13.0 | 0.00 | 0.00 | 0.00 | 58 | |
| 20260831025942 | 0 | 119 | 4.0 | 13.0 | 0.00 | 0.00 | 0.00 | 57 | |
| 20260831025419 | 0 | 68 | 6.0 | 13.0 | 0.00 | 0.00 | 0.00 | 58 | |
| 20260831024856 | 0 | 93 | 6.0 | 11.0 | 0.00 | 0.00 | 0.00 | 45 | |
| 20260831024333 | 0 | 98 | 6.0 | 10.0 | 0.00 | 0.00 | 0.00 | 57 | |
| 20260831023810 | 0 | 121 | 5.0 | 13.0 | 0.00 | 0.00 | 0.00 | 53 | |
| 20260831023247 | 0 | 89 | 6.0 | 13.0 | 0.00 | 0.00 | 0.00 | 53 | |
| 20260831022724 | 0 | 95 | 5.0 | 13.0 | 0.00 | 0.00 | 0.00 | 40 | |
| 20260831022201 | 0 | 110 | 5.0 | 12.0 | 0.00 | 0.00 | 0.00 | 40 | |
| 20260831021638 | 0 | 93 | 6.0 | 12.0 | 0.00 | 0.00 | 0.00 | 42 | |
| 20260831021115 | 0 | 88 | 4.0 | 13.0 | 0.00 | 0.00 | 0.00 | 42 | |
| 20260831020552 | 0 | 100 | 6.0 | 13.0 | 0.00 | 0.00 | 0.00 | 42 | |
| 20260831020029 | 0 | 93 | 3.0 | 13.0 | 0.00 | 0.00 | 0.00 | 42 | |
| 20260831015506 | 0 | 105 | 5.0 | 13.0 | 0.00 | 0.00 | 0.00 | 33 | |
| 20260831014944 | 0 | 93 | 6.0 | 13.0 | 0.00 | 0.00 | 0.00 | 33 | |
| 20260831014420 | 0 | 92 | 4.0 | 13.0 | 0.00 | 0.00 | 0.00 | 34 | |
| 20260831013857 | 0 | 273 | 5.0 | 14.0 | 0.00 | 0.00 | 0.00 | 44 | |
| 20260831013334 | 0 | 93 | 4.0 | 14.0 | 0.00 | 0.00 | 0.00 | 35 | |
| 20260831012812 | 0 | 96 | 6.0 | 16.0 | 0.00 | 0.00 | 0.00 | 31 | |
| 20260831012248 | 0 | 92 | 3.0 | 16.0 | 0.00 | 0.00 | 0.00 | 36 | |
| 20260831011724 | 0 | 54 | 4.0 | 16.0 | 0.00 | 0.00 | 0.00 | 36 | |
| 20260831011202 | 0 | 77 | 7.0 | 17.0 | 0.00 | 0.00 | 0.00 | 33 | |
| 20260831010640 | 0 | 82 | 3.0 | 17.0 | 0.00 | 0.00 | 0.00 | 39 | |
| 20260831010116 | 0 | 92 | 4.0 | 17.0 | 0.00 | 0.00 | 0.00 | 33 | |
| 20260831005554 | 0 | 89 | 8.0 | 13.0 | 0.00 | 0.00 | 0.00 | 28 | |
| 20260831005029 | 0 | 134 | 4.0 | 13.0 | 0.00 | 0.00 | 0.00 | 28 | |
| 20260831004506 | 0 | 82 | 4.0 | 13.0 | 0.00 | 0.00 | 0.00 | 28 | |
| 20260831003943 | 0 | 61 | 4.0 | 13.0 | 0.00 | 0.00 | 0.00 | 28 | |
| 20260831003420 | 0 | 128 | 4.0 | 13.0 | 0.00 | 0.00 | 0.00 | 32 | |
| 20260831002858 | 0 | 109 | 5.0 | 12.0 | 0.00 | 0.00 | 0.00 | 31 | |
| 20260831002335 | 0 | 82 | 5.0 | 11.0 | 0.00 | 0.00 | 0.00 | 30 | |
| 20260831001812 | 0 | 130 | 4.0 | 18.0 | 0.00 | 0.00 | 0.00 | 29 | |
| 20260831001249 | 0 | 85 | 4.0 | 18.0 | 0.00 | 0.00 | 0.00 | 31 | |
| 20260831000726 | 0 | 114 | 6.0 | 14.0 | 0.00 | 0.00 | 0.00 | 31 | |
| 20260831000204 | 0 | 89 | 7.0 | 14.0 | 0.00 | 0.00 | 0.00 | 31 | |
| 20260830235639 | 0 | 131 | 7.0 | 14.0 | 0.00 | 0.00 | 0.00 | 33 | |
| 20260830235117 | 0 | 91 | 8.0 | 17.0 | 0.00 | 0.00 | 0.00 | 33 | |
| 20260830234553 | 0 | 85 | 5.0 | 17.0 | 0.00 | 0.00 | 0.00 | 29 | |
| 20260830234030 | 0 | 93 | 6.0 | 17.0 | 0.00 | 0.00 | 0.00 | 29 | |
| 20260830233507 | 0 | 112 | 6.0 | 16.0 | 0.00 | 0.00 | 0.00 | 30 | |
| 20260830232944 | 0 | 91 | 8.0 | 15.0 | 0.00 | 0.00 | 0.00 | 30 | |
| 20260830232421 | 0 | 93 | 8.0 | 15.0 | 0.00 | 0.00 | 0.00 | 29 | |
| 20260830231858 | 0 | 135 | 7.0 | 16.0 | 0.00 | 0.00 | 0.00 | 28 | |
| 20260830231336 | 0 | 98 | 7.0 | 16.0 | 0.00 | 0.00 | 0.00 | 29 | |
| 20260830230812 | 0 | 98 | 6.0 | 16.0 | 0.00 | 0.00 | 0.00 | 27 | |
| 20260830230249 | 0 | 100 | 6.0 | 16.0 | 0.00 | 0.00 | 0.00 | 27 | |
| 20260830225726 | 0 | 79 | 5.0 | 16.0 | 0.00 | 0.00 | 0.00 | 26 | |
| 20260830225203 | 0 | 81 | 5.0 | 14.0 | 0.00 | 0.00 | 0.00 | 26 | |
| 20260830224640 | 0 | 103 | 7.0 | 14.0 | 0.00 | 0.00 | 0.00 | 28 | |
| 20260830224117 | 0 | 128 | 6.0 | 12.0 | 0.00 | 0.00 | 0.00 | 27 | |
| 20260830223554 | 0 | 93 | 4.0 | 14.0 | 0.00 | 0.00 | 0.00 | 26 | |
| 20260830223031 | 0 | 98 | 6.0 | 14.0 | 0.00 | 0.00 | 0.00 | 25 | |
| 20260830222508 | 0 | 92 | 6.0 | 14.0 | 0.00 | 0.00 | 0.00 | 25 | |
| 20260830221945 | 0 | 93 | 3.0 | 16.0 | 0.00 | 0.00 | 0.00 | 25 | |
| 20260830221422 | 0 | 65 | 4.0 | 16.0 | 0.00 | 0.00 | 0.00 | 24 | |
| 20260830220859 | 0 | 86 | 7.0 | 13.0 | 0.00 | 0.00 | 0.00 | 24 | |
| 20260830220336 | 0 | 79 | 7.0 | 12.0 | 0.00 | 0.00 | 0.00 | 24 | |
| 20260830215813 | 0 | 138 | 4.0 | 13.0 | 0.00 | 0.00 | 0.00 | 23 | |
| 20260830215250 | 0 | 100 | 7.0 | 13.0 | 0.00 | 0.00 | 0.00 | 25 | |
| 20260830214727 | 0 | 127 | 7.0 | 18.0 | 0.00 | 0.00 | 0.00 | 24 | |
| 20260830214205 | 0 | 105 | 7.0 | 18.0 | 0.00 | 0.00 | 0.00 | 24 | |
| 20260830213641 | 0 | 86 | 7.0 | 18.0 | 0.00 | 0.00 | 0.00 | 24 | |
| 20260830213118 | 0 | 91 | 4.0 | 14.0 | 0.00 | 0.00 | 0.00 | 21 | |
| 20260830212555 | 0 | 110 | 6.0 | 14.0 | 0.00 | 0.00 | 0.00 | 25 | |
| 20260830212032 | 0 | 99 | 6.0 | 14.0 | 0.00 | 0.00 | 0.00 | 17 | |
| 20260830211509 | 0 | 72 | 4.0 | 12.0 | 0.00 | 0.00 | 0.00 | 17 | |
| 20260830210946 | 0 | 84 | 5.0 | 10.0 | 0.00 | 0.00 | 0.00 | 22 | |
| 20260830210424 | 0 | 88 | 2.0 | 9.0 | 0.00 | 0.00 | 0.00 | 21 | |
| 20260830205900 | 0 | 103 | 2.0 | 9.0 | 0.00 | 0.00 | 0.00 | 23 | |
| 20260830205337 | 0 | 110 | 3.0 | 17.0 | 0.00 | 0.00 | 0.00 | 23 | |
| 20260830204814 | 0 | 99 | 6.0 | 17.0 | 0.00 | 0.00 | 0.00 | 17 | |
| 20260830204252 | 0 | 86 | 5.0 | 13.0 | 0.00 | 0.00 | 0.00 | 23 | |
| 20260830203728 | 0 | 109 | 5.0 | 13.0 | 0.00 | 0.00 | 0.00 | 22 | |
| 20260830203205 | 0 | 93 | 5.0 | 11.0 | 0.00 | 0.00 | 0.00 | 19 | |
| 20260830202642 | 0 | 95 | 4.0 | 11.0 | 0.00 | 0.00 | 0.00 | 18 | |
| 20260830202119 | 0 | 109 | 6.0 | 11.0 | 0.00 | 0.00 | 0.00 | 17 | |
| 20260830201556 | 0 | 106 | 5.0 | 10.0 | 0.00 | 0.00 | 0.00 | 20 | |
| 20260830201033 | 0 | 99 | 2.0 | 11.0 | 0.00 | 0.00 | 0.00 | 20 | |
| 20260830200510 | 0 | 98 | 3.0 | 11.0 | 0.00 | 0.00 | 0.00 | 23 | |
| 20260830195947 | 0 | 78 | 3.0 | 11.0 | 0.00 | 0.00 | 0.00 | 21 | |
| 20260830195424 | 0 | 105 | 5.0 | 12.0 | 0.00 | 0.00 | 0.00 | 22 | |
| 20260830194901 | 0 | 105 | 5.0 | 12.0 | 0.00 | 0.00 | 0.00 | 19 | |
| 20260830194338 | 0 | 103 | 4.0 | 9.0 | 0.00 | 0.00 | 0.00 | 17 | |
| 20260830193815 | 0 | 103 | 4.0 | 10.0 | 0.00 | 0.00 | 0.00 | 18 | |
| 20260830193252 | 0 | 100 | 4.0 | 10.0 | 0.00 | 0.00 | 0.00 | 17 | |
| 20260830192729 | 0 | 103 | 4.0 | 8.0 | 0.00 | 0.00 | 0.00 | 14 | |
| 20260830192206 | 0 | 113 | 4.0 | 11.0 | 0.00 | 0.00 | 0.00 | 14 | |
| 20260830191643 | 0 | 99 | 4.0 | 11.0 | 0.00 | 0.00 | 0.00 | 15 | |
| 20260830191120 | 0 | 98 | 2.0 | 11.0 | 0.00 | 0.00 | 0.00 | 15 | |
| 20260830190557 | 0 | 86 | 4.0 | 7.0 | 0.00 | 0.00 | 0.00 | 15 | |
| 20260830190034 | 0 | 114 | 1.0 | 9.0 | 0.00 | 0.00 | 0.00 | 15 | |
| 20260830185511 | 0 | 121 | 3.0 | 9.0 | 0.00 | 0.00 | 0.00 | 15 | |
| 20260830184948 | 0 | 113 | 2.0 | 9.0 | 0.00 | 0.00 | 0.00 | 15 | |
| 20260830184425 | 0 | 98 | 1.0 | 8.0 | 0.00 | 0.00 | 0.00 | 15 | |
| 20260830183902 | 0 | 126 | 1.0 | 9.0 | 0.00 | 0.00 | 0.00 | 14 | |
| 20260830183339 | 0 | 110 | 0.0 | 9.0 | 0.00 | 0.00 | 0.00 | 14 | |
| 20260830182816 | 0 | 268 | 4.0 | 4.0 | 0.00 | 0.00 | 0.00 | 8 | |
| 20260830182253 | 0 | 287 | 0.0 | 4.0 | 0.00 | 0.00 | 0.00 | 10 | |
| 20260830181730 | 0 | 231 | 0.0 | 4.0 | 0.00 | 0.00 | 0.00 | 8 | |
| 20260830181207 | 0 | 238 | 0.0 | 3.0 | 0.00 | 0.00 | 0.00 | 8 | |
| 20260830180644 | 0 | 95 | 1.0 | 3.0 | 0.00 | 0.00 | 0.00 | 12 | |
| 20260830180121 | 0 | 239 | 0.0 | 2.0 | 0.00 | 0.00 | 0.00 | 11 | |
| 20260830175558 | 0 | 173 | 0.0 | 4.0 | 0.00 | 0.00 | 0.00 | 14 | |
| 20260830175036 | 0 | 121 | 0.0 | 4.0 | 0.00 | 0.00 | 0.00 | 18 | |
| 20260830174512 | 0 | 105 | 1.0 | 4.0 | 0.00 | 0.00 | 0.00 | 17 | |
| 20260830173949 | 0 | 112 | 1.0 | 5.0 | 0.00 | 0.00 | 0.00 | 19 | |
| 20260830173426 | 0 | 239 | 0.0 | 5.0 | 0.00 | 0.00 | 0.00 | 17 | |
| 20260830172904 | 0 | 228 | 0.0 | 4.0 | 0.00 | 0.00 | 0.00 | 20 | |
| 20260830172339 | 0 | 19 | 0.0 | 3.0 | 0.00 | 0.00 | 0.00 | 23 | |
| 20260830171817 | 0 | 82 | 1.0 | 3.0 | 0.00 | 0.00 | 0.00 | 22 | |
| 20260830171253 | 0 | 85 | 1.0 | 3.0 | 0.00 | 0.00 | 0.00 | 24 | |
| 20260830170730 | 0 | 215 | 0.0 | 3.0 | 0.00 | 0.00 | 0.00 | 18 | |
| 20260830170207 | 0 | 121 | 1.0 | 3.0 | 0.00 | 0.00 | 0.00 | 22 | |
| 20260830165644 | 0 | 302 | 1.0 | 1.0 | 0.00 | 0.00 | 0.00 | 20 | |
| 20260830165121 | 0 | 308 | 0.0 | 2.0 | 0.00 | 0.00 | 0.00 | 23 | |
| 20260830164559 | 0 | 0 | 0.0 | 2.0 | 0.00 | 0.00 | 0.00 | 23 | |
| 20260830164036 | 0 | 305 | 0.0 | 2.0 | 0.00 | 0.00 | 0.00 | 21 | |
| 20260830163512 | 0 | 0 | 0.0 | 0.0 | 0.00 | 0.00 | 0.00 | 18 | |
| 20260830162949 | 0 | 0 | 0.0 | 2.0 | 0.00 | 0.00 | 0.00 | 20 | |
| 20260830162426 | 0 | 0 | 0.0 | 2.0 | 0.00 | 0.00 | 0.00 | 21 | |
| 20260830161903 | 0 | 310 | 0.0 | 1.0 | 0.00 | 0.00 | 0.00 | 21 | |
| 20260830161340 | 0 | 0 | 0.0 | 0.0 | 0.00 | 0.00 | 0.00 | 43 | |
| 20260830160817 | 0 | 0 | 0.0 | 0.0 | 0.00 | 0.00 | 0.00 | 37 | |
| 20260830160254 | 0 | 0 | 0.0 | 0.0 | 0.00 | 0.00 | 0.00 | 38 | |
| 20260830155731 | 0 | 0 | 0.0 | 0.0 | 0.00 | 0.00 | 0.00 | 38 | |
| 20260830155208 | 0 | 0 | 0.0 | 0.0 | 0.00 | 0.00 | 0.00 | 38 | |
| 20260830154645 | 0 | 0 | 0.0 | 0.0 | 0.00 | 0.00 | 0.00 | 39 | |
| 20260830154123 | 0 | 0 | 0.0 | 0.0 | 0.00 | 0.00 | 0.00 | 40 | |
| 20260830153559 | 0 | 0 | 0.0 | 0.0 | 0.00 | 0.00 | 0.00 | 42 | |
| 20260830153036 | 0 | 0 | 0.0 | 0.0 | 0.00 | 0.00 | 0.00 | 45 | |
| 20260830152514 | 0 | 0 | 0.0 | 0.0 | 0.00 | 0.00 | 0.00 | 46 | |
| 20260830151950 | 0 | 0 | 0.0 | 0.0 | 0.00 | 0.00 | 0.00 | 48 | |
| 20260830151427 | 0 | 0 | 0.0 | 0.0 | 0.00 | 0.00 | 0.00 | 48 | |
| 20260830150904 | 0 | 0 | 0.0 | 0.0 | 0.00 | 0.00 | 0.00 | 44 | |
| 20260830150341 | 0 | 0 | 0.0 | 0.0 | 0.00 | 0.00 | 0.00 | 46 | |
| 20260830145818 | 0 | 0 | 0.0 | 0.0 | 0.00 | 0.00 | 0.00 | 47 | |
| 20260830145255 | 0 | 0 | 0.0 | 0.0 | 0.00 | 0.00 | 0.00 | 50 | |
| 20260830144732 | 0 | 0 | 0.0 | 0.0 | 0.00 | 0.00 | 0.00 | 55 | |
| 20260830144210 | 0 | 0 | 0.0 | 0.0 | 0.00 | 0.00 | 0.00 | 51 | |
| 20260830143646 | 0 | 0 | 0.0 | 0.0 | 0.00 | 0.00 | 0.00 | 51 | |
| 20260830143123 | 0 | 0 | 0.0 | 0.0 | 0.00 | 0.00 | 0.00 | 54 | |
| 20260830142600 | 0 | 0 | 0.0 | 0.0 | 0.00 | 0.00 | 0.00 | 59 | |
| 20260830142037 | 0 | 0 | 0.0 | 0.0 | 0.00 | 0.00 | 0.00 | 58 | |
| 20260830141514 | 0 | 0 | 0.0 | 0.0 | 0.00 | 0.00 | 0.00 | 59 | |
| 20260830140951 | 0 | 0 | 0.0 | 0.0 | 0.00 | 0.00 | 0.00 | 58 | |
| 20260830140428 | 0 | 0 | 0.0 | 0.0 | 0.00 | 0.00 | 0.00 | 58 | |
| 20260830135905 | 0 | 0 | 0.0 | 0.0 | 0.00 | 0.00 | 0.00 | 59 | |
| 20260830135342 | 0 | 0 | 0.0 | 0.0 | 0.00 | 0.00 | 0.00 | 58 | |
| 20260830134819 | 0 | 0 | 0.0 | 0.0 | 0.00 | 0.00 | 0.00 | 59 | |
| 20260830134257 | 0 | 0 | 0.0 | 0.0 | 0.00 | 0.00 | 0.00 | 60 | |
| 20260830133733 | 0 | 0 | 0.0 | 0.0 | 0.00 | 0.00 | 0.00 | 60 | |
| 20260830133210 | 0 | 0 | 0.0 | 0.0 | 0.00 | 0.00 | 0.00 | 58 | |
| 20260830132647 | 0 | 0 | 0.0 | 0.0 | 0.00 | 0.00 | 0.00 | 58 | |
| 20260830132124 | 0 | 0 | 0.0 | 0.0 | 0.00 | 0.00 | 0.00 | 56 | |
| 20260830131601 | 0 | 0 | 0.0 | 0.0 | 0.00 | 0.00 | 0.00 | 57 | |
| 20260830131038 | 0 | 0 | 0.0 | 0.0 | 0.00 | 0.00 | 0.00 | 57 | |
| 20260830130516 | 0 | 0 | 0.0 | 0.0 | 0.00 | 0.00 | 0.00 | 57 | |
| 20260830125953 | 0 | 0 | 0.0 | 0.0 | 0.00 | 0.00 | 0.00 | 56 | |
| 20260830125429 | 0 | 0 | 0.0 | 0.0 | 0.00 | 0.00 | 0.00 | 58 | |
| 20260830124906 | 0 | 0 | 0.0 | 2.0 | 0.00 | 0.00 | 0.00 | 58 | |
| 20260830124343 | 0 | 222 | 0.0 | 2.0 | 0.00 | 0.03 | 0.00 | 58 | |
| 20260830123820 | 0 | 224 | 0.0 | 2.0 | 0.00 | 0.03 | 0.00 | 59 | |
| 20260830123257 | 0 | 0 | 0.0 | 0.0 | 0.00 | 0.03 | 0.00 | 56 | |
| 20260830122734 | 0 | 212 | 0.0 | 2.0 | 0.00 | 0.03 | 0.00 | 58 | |
| 20260830122211 | 0 | 261 | 0.0 | 2.0 | 0.00 | 0.03 | 0.00 | 57 | |
| 20260830121648 | 0 | 288 | 0.0 | 2.0 | 0.00 | 0.03 | 0.00 | 60 | |
| 20260830121125 | 0 | 261 | 0.0 | 2.0 | 0.00 | 0.03 | 0.00 | 58 | |
| 20260830120602 | 0 | 0 | 0.0 | 1.0 | 0.00 | 0.03 | 0.00 | 56 | |
| 20260830120039 | 0 | 243 | 0.0 | 1.0 | 0.00 | 0.03 | 0.00 | 57 | |
| 20260830115516 | 0 | 253 | 0.0 | 1.0 | 0.00 | 0.03 | 0.00 | 59 | |
| 20260830114953 | 0 | 0 | 0.0 | 0.0 | 0.00 | 0.03 | 0.00 | 62 | |
| 20260830114431 | 0 | 0 | 0.0 | 0.0 | 0.00 | 0.03 | 0.00 | 58 | |
| 20260830113907 | 0 | 0 | 0.0 | 0.0 | 0.00 | 0.07 | 0.00 | 57 | |
| 20260830113344 | 0 | 0 | 0.0 | 0.0 | 0.00 | 0.07 | 0.00 | 58 | |
| 20260830112821 | 0 | 0 | 0.0 | 0.0 | 0.00 | 0.07 | 0.00 | 56 | |
| 20260830112258 | 0 | 0 | 0.0 | 0.0 | 0.00 | 0.07 | 0.00 | 57 | |
| 20260830111735 | 0 | 0 | 0.0 | 0.0 | 0.00 | 0.07 | 0.00 | 57 | |
| 20260830111212 | 0 | 0 | 0.0 | 0.0 | 0.00 | 0.07 | 0.00 | 57 | |
| 20260830110649 | 0 | 0 | 0.0 | 0.0 | 0.00 | 0.07 | 0.00 | 57 | |
| 20260830110126 | 0 | 0 | 0.0 | 0.0 | 0.00 | 0.07 | 0.00 | 57 | |
| 20260830105603 | 0 | 0 | 0.0 | 0.0 | 0.00 | 0.07 | 0.00 | 57 | |
| 20260830105040 | 0 | 0 | 0.0 | 0.0 | 0.00 | 0.07 | 0.00 | 57 | |
| 20260830104517 | 0 | 0 | 0.0 | 0.0 | 0.00 | 0.07 | 0.00 | 57 | |
| 20260830103954 | 0 | 0 | 0.0 | 0.0 | 0.00 | 0.07 | 0.00 | 57 | |
| 20260830103430 | 0 | 0 | 0.0 | 0.0 | 0.00 | 0.07 | 0.00 | 57 | |
| 20260830102907 | 0 | 0 | 0.0 | 0.0 | 0.00 | 0.07 | 0.00 | 56 | |
| 20260830102345 | 0 | 0 | 0.0 | 0.0 | 0.00 | 0.07 | 0.00 | 57 | |
| 20260830101822 | 0 | 0 | 0.0 | 2.0 | 0.00 | 0.07 | 0.00 | 57 | |
| 20260830101258 | 0 | 301 | 0.0 | 2.0 | 0.00 | 0.07 | 0.00 | 57 | |
| 20260830100735 | 0 | 277 | 0.0 | 3.0 | 0.00 | 0.07 | 0.00 | 57 | |
| 20260830100213 | 0 | 0 | 0.0 | 3.0 | 0.00 | 0.07 | 0.00 | 61 | |
| 20260830095649 | 0 | 0 | 0.0 | 3.0 | 0.00 | 0.07 | 0.00 | 59 | |
| 20260830095126 | 0 | 260 | 0.0 | 3.0 | 0.00 | 0.07 | 0.00 | 62 | |
| 20260830094603 | 0 | 271 | 0.0 | 3.0 | 0.00 | 0.07 | 0.00 | 57 | |
| 20260830094042 | 0 | 264 | 0.0 | 3.0 | 0.00 | 0.07 | 0.00 | 59 | |
| 20260830093517 | 0 | 0 | 0.0 | 2.0 | 0.00 | 0.07 | 0.00 | 61 | |
| 20260830092955 | 0 | 252 | 0.0 | 2.0 | 0.00 | 0.07 | 0.00 | 60 | |
| 20260830092432 | 0 | 295 | 0.0 | 2.0 | 0.00 | 0.07 | 0.00 | 60 | |
| 20260830091908 | 0 | 249 | 0.0 | 2.0 | 0.00 | 0.07 | 0.00 | 60 | |
| 20260830091345 | 0 | 240 | 0.0 | 2.0 | 0.00 | 0.07 | 0.00 | 60 | |
| 20260830090822 | 0 | 252 | 0.0 | 4.0 | 0.00 | 0.07 | 0.00 | 62 | |
| 20260830090350 | 0 | 0 | 0.0 | 4.0 | 0.00 | 0.07 | 0.00 | 63 | |
| 20260830090259 | 0 | 0 | 0.0 | 4.0 | 0.00 | 0.07 | 0.00 | 63 | |
| 20260830085736 | 0 | 238 | 0.0 | 4.0 | 0.00 | 0.07 | 0.00 | 63 | |
| 20260830085213 | 0 | 232 | 0.0 | 2.0 | 0.00 | 0.07 | 0.00 | 62 | |
| 20260830084650 | 0 | 0 | 0.0 | 1.0 | 0.00 | 0.07 | 0.00 | 63 | |
| 20260830084127 | 0 | 256 | 0.0 | 3.0 | 0.00 | 0.07 | 0.00 | 62 | |
| 20260830083604 | 0 | 0 | 0.0 | 3.0 | 0.00 | 0.07 | 0.00 | 59 | |
| 20260830083041 | 0 | 222 | 0.0 | 3.0 | 0.00 | 0.07 | 0.00 | 59 | |
| 20260830082518 | 0 | 238 | 1.0 | 5.0 | 0.00 | 0.07 | 0.00 | 62 | |
| 20260830081955 | 0 | 0 | 0.0 | 5.0 | 0.00 | 0.07 | 0.00 | 56 | |
| 20260830081432 | 0 | 281 | 2.0 | 5.0 | 0.00 | 0.07 | 0.00 | 59 | |
| 20260830080909 | 0 | 291 | 0.0 | 3.0 | 0.00 | 0.07 | 0.00 | 60 | |
| 20260830080347 | 0 | 247 | 1.0 | 4.0 | 0.00 | 0.07 | 0.00 | 60 | |
| 20260830075823 | 0 | 245 | 1.0 | 4.0 | 0.00 | 0.07 | 0.00 | 60 | |
| 20260830075300 | 0 | 273 | 1.0 | 2.0 | 0.00 | 0.07 | 0.00 | 60 | |
| 20260830074737 | 0 | 176 | 0.0 | 6.0 | 0.00 | 0.07 | 0.00 | 61 | |
| 20260830074215 | 0 | 225 | 0.0 | 6.0 | 0.00 | 0.07 | 0.00 | 60 | |
| 20260830073651 | 0 | 263 | 0.0 | 6.0 | 0.00 | 0.07 | 0.00 | 60 | |
| 20260830073128 | 0 | 256 | 0.0 | 5.0 | 0.00 | 0.07 | 0.00 | 60 | |
| 20260830072605 | 0 | 222 | 0.0 | 5.0 | 0.00 | 0.07 | 0.00 | 58 | |
| 20260830072042 | 0 | 232 | 0.0 | 5.0 | 0.00 | 0.07 | 0.00 | 57 | |
| 20260830071519 | 0 | 245 | 2.0 | 5.0 | 0.00 | 0.07 | 0.00 | 59 | |
| 20260830070956 | 0 | 242 | 1.0 | 5.0 | 0.00 | 0.07 | 0.00 | 61 | |
| 20260830070433 | 0 | 236 | 1.0 | 5.0 | 0.00 | 0.07 | 0.00 | 61 | |
| 20260830065910 | 0 | 278 | 0.0 | 5.0 | 0.00 | 0.07 | 0.00 | 58 | |
| 20260830065347 | 0 | 239 | 2.0 | 4.0 | 0.00 | 0.07 | 0.00 | 59 | |
| 20260830064828 | 0 | 219 | 1.0 | 4.0 | 0.00 | 0.07 | 0.00 | 59 | |
| 20260830064301 | 0 | 239 | 1.0 | 6.0 | 0.00 | 0.07 | 0.00 | 61 |